Location: Alto Pass Reservoir
(37.5801°N, 89.3084°W)
Time: 06:25:23
(UTC+00:00)

Cosmos 2298 Rocket - Pass Details

Date: 05 July 2022
Orbit: 775 x 784 km, 74.0° (Epoch: 15 August)

Event Time Altitude Azimuth Distance (km) Brightness Sun altitude
Rises 08:27:27 0° 349° (N) 3,279 7.9 -20.6°
Reaches altitude 10° 08:30:00 10° 357° (N) 2,347 7.2 -20.3°
Maximum altitude 08:34:59 39° 66° (ENE) 1,159 5.4 -19.7°
Drops below altitude 10° 08:39:56 10° 135° (SE) 2,332 6.4 -19.1°
Sets 08:42:27 0° 143° (SE) 3,255 7.1 -18.8°
